Emporia, Virginia, United States (23847)
Lat: 36.69N, Lon: 77.54W
Wx Zone: VAZ087
Local Info
Past Weather Observations for Thursday, January 22, 2015

NOTE: This archive is for the closest National Weather Service station to Emporia. Information may differ from the station used for current weather conditions.

Click here for Long-term Archive

Time Weather Temperature Dewpoint Humidity Pressure Winds Precip Visibility
23:55
Clear
30°F / -1°C 28°F / -2°C 93% 30.39 in
(1029 mb)
Calm - 10SM
23:35
Clear
30°F / -1°C 30°F / -1°C 100% 30.39 in
(1029 mb)
Calm - 10SM
23:15
Clear
28°F / -2°C 28°F / -2°C 100% 30.39 in
(1029 mb)
Calm - 10SM
22:55
Clear
28°F / -2°C 28°F / -2°C 100% 30.39 in
(1029 mb)
Calm - 10SM
22:35
Clear
30°F / -1°C 30°F / -1°C 100% 30.39 in
(1029 mb)
Calm - 10SM
22:15
Clear
28°F / -2°C 28°F / -2°C 100% 30.39 in
(1029 mb)
Calm - 10SM
21:55
Clear
30°F / -1°C 30°F / -1°C 100% 30.39 in
(1029 mb)
Calm - 10SM
21:35
Clear
30°F / -1°C 30°F / -1°C 100% 30.39 in
(1029 mb)
NE 4.6 mph
(NE 7 kph)
- 10SM
21:15
Clear
30°F / -1°C 28°F / -2°C 93% 30.39 in
(1029 mb)
Calm - 10SM
20:55
Clear
32°F / 0°C 32°F / 0°C 100% 30.39 in
(1029 mb)
Calm - 10SM
20:35
Clear
32°F / 0°C 32°F / 0°C 100% 30.39 in
(1029 mb)
Calm - 10SM
20:15
Clear
32°F / 0°C 32°F / 0°C 100% 30.39 in
(1029 mb)
Calm - 10SM
19:55
Clear
32°F / 0°C 30°F / -1°C 93% 30.36 in
(1028 mb)
Calm - 10SM
19:35
Clear
36°F / 2°C 32°F / 0°C 87% 30.36 in
(1028 mb)
Calm - 10SM
19:15
Clear
41°F / 5°C 32°F / 0°C 70% 30.36 in
(1028 mb)
NE 3.5 mph
(NE 6 kph)
- 10SM
18:55
Clear
41°F / 5°C 32°F / 0°C 70% 30.36 in
(1028 mb)
Calm - 10SM
18:35
Clear
41°F / 5°C 32°F / 0°C 70% 30.36 in
(1028 mb)
Calm - 10SM
18:15
Clear
43°F / 6°C 32°F / 0°C 66% 30.36 in
(1028 mb)
Calm - 10SM
17:55
Clear
43°F / 6°C 32°F / 0°C 66% 30.36 in
(1028 mb)
Calm - 10SM
17:35
Clear
46°F / 8°C 32°F / 0°C 57% 30.36 in
(1028 mb)
Calm - 10SM
17:15
Clear
46°F / 8°C 32°F / 0°C 57% 30.33 in
(1027 mb)
NNE 4.6 mph
(NNE 7 kph)
- 10SM
16:55
Clear
50°F / 10°C 32°F / 0°C 50% 30.33 in
(1027 mb)
NE 5.8 mph
(NE 9 kph)
- 10SM
16:35
Clear
52°F / 11°C 28°F / -2°C 41% 30.3 in
(1026 mb)
W 3.5 mph
(W 6 kph)
- 10SM
16:15
Clear
52°F / 11°C 28°F / -2°C 41% 30.3 in
(1026 mb)
SSW 3.5 mph
(SSW 6 kph)
- 10SM
15:55
Clear
52°F / 11°C 28°F / -2°C 41% 30.3 in
(1026 mb)
W 4.6 mph
(W 7 kph)
- 10SM
15:35
Clear
54°F / 12°C 30°F / -1°C 41% 30.3 in
(1026 mb)
W 8.1 mph
(W 13 kph)
- 10SM
13:55
Clear
52°F / 11°C 30°F / -1°C 44% 30.27 in
(1025 mb)
W 9.2 mph
(W 15 kph)
- 10SM
13:35
Clear
52°F / 11°C 32°F / 0°C 47% 30.3 in
(1026 mb)
SSW 6.9 mph
(SSW 11 kph)
- 10SM
13:15
Clear
52°F / 11°C 30°F / -1°C 44% 30.27 in
(1025 mb)
SSW 10.4 mph
(SSW 17 kph)
- 10SM
12:55
Clear
52°F / 11°C 32°F / 0°C 47% 30.27 in
(1025 mb)
SSW 8.1 mph
(SSW 13 kph)
- 10SM
12:35
Clear
52°F / 11°C 32°F / 0°C 47% 30.3 in
(1026 mb)
SSW 9.2 mph
(SSW 15 kph)
- 10SM
12:15
Clear
50°F / 10°C 34°F / 1°C 54% 30.3 in
(1026 mb)
SSW 6.9 mph
(SSW 11 kph)
- 10SM
11:55
Clear
48°F / 9°C 34°F / 1°C 58% 30.3 in
(1026 mb)
SSW 8.1 mph
(SSW 13 kph)
- 10SM
11:35
Clear
46°F / 8°C 34°F / 1°C 62% 30.33 in
(1027 mb)
SSW 6.9 mph
(SSW 11 kph)
- 10SM
11:15
Clear
46°F / 8°C 34°F / 1°C 62% 30.33 in
(1027 mb)
SSW 4.6 mph
(SSW 7 kph)
- 10SM
10:55
Clear
45°F / 7°C 34°F / 1°C 66% 30.33 in
(1027 mb)
SSW 8.1 mph
(SSW 13 kph)
- 10SM
10:35
Clear
41°F / 5°C 36°F / 2°C 81% 30.33 in
(1027 mb)
W 3.5 mph
(W 6 kph)
- 10SM
10:15
Clear
41°F / 5°C 36°F / 2°C 81% 30.33 in
(1027 mb)
W 3.5 mph
(W 6 kph)
- 10SM
09:55
Clear
36°F / 2°C 34°F / 1°C 93% 30.33 in
(1027 mb)
Calm - 7SM
09:35
Clear
Fog And Mist
36°F / 2°C 34°F / 1°C 93% 30.3 in
(1026 mb)
SW 3.5 mph
(SW 6 kph)
- 5SM
09:15
Clear
Fog And Mist
32°F / 0°C 32°F / 0°C 100% 30.3 in
(1026 mb)
Calm - 5SM
08:55
Clear
Fog And Mist
32°F / 0°C 32°F / 0°C 100% 30.3 in
(1026 mb)
Calm - 4SM
08:35
Clear
Fog And Mist
32°F / 0°C 32°F / 0°C 100% 30.3 in
(1026 mb)
Calm - 4SM
08:15
Clear
Fog And Mist
30°F / -1°C 30°F / -1°C 100% 30.27 in
(1025 mb)
Calm - 3SM
07:55
Clear
Fog And Mist
28°F / -2°C 28°F / -2°C 100% 30.27 in
(1025 mb)
Calm - 4SM
07:35
Clear
Fog And Mist
28°F / -2°C 28°F / -2°C 100% 30.27 in
(1025 mb)
Calm - 2SM
07:15
Obscured
Fog And Mist
27°F / -3°C 27°F / -3°C 100% 30.27 in
(1025 mb)
Calm - 1 1/4SM
06:55
Clear
27°F / -3°C 27°F / -3°C 100% 30.24 in
(1024 mb)
Calm - 7SM
06:35
Clear
Fog And Mist
27°F / -3°C 27°F / -3°C 100% 30.24 in
(1024 mb)
Calm - 2 1/2SM
06:15
Clear
Fog And Mist
27°F / -3°C 27°F / -3°C 100% 30.24 in
(1024 mb)
Calm - 3SM
05:55
Clear
Fog And Mist
27°F / -3°C 27°F / -3°C 100% 30.24 in
(1024 mb)
Calm - 3SM
05:35
Clear
Fog And Mist
27°F / -3°C 27°F / -3°C 100% 30.24 in
(1024 mb)
Calm - 4SM
05:15
Clear
Fog And Mist
28°F / -2°C 28°F / -2°C 100% 30.24 in
(1024 mb)
SW 3.5 mph
(SW 6 kph)
- 5SM
04:55
Clear
Fog And Mist
28°F / -2°C 28°F / -2°C 100% 30.24 in
(1024 mb)
Calm - 5SM
04:35
Clear
Fog And Mist
28°F / -2°C 28°F / -2°C 100% 30.21 in
(1023 mb)
Calm - 4SM
04:15
Clear
Fog And Mist
28°F / -2°C 28°F / -2°C 100% 30.21 in
(1023 mb)
Calm - 5SM
03:55
Clear
Fog And Mist
28°F / -2°C 28°F / -2°C 100% 30.21 in
(1023 mb)
Calm - 3SM
03:35
Obscured
Fog
27°F / -3°C 27°F / -3°C 100% 30.21 in
(1023 mb)
Calm - 1/2SM
03:15
Obscured
Fog And Mist
27°F / -3°C 27°F / -3°C 100% 30.21 in
(1023 mb)
Calm - 1 1/2SM
02:55
Clear
Fog And Mist
27°F / -3°C 27°F / -3°C 100% 30.21 in
(1023 mb)
Calm - 3SM
02:35
Obscured
Fog And Mist
27°F / -3°C 27°F / -3°C 100% 30.21 in
(1023 mb)
Calm - 1 1/4SM
02:15
Obscured
Fog And Mist
27°F / -3°C 27°F / -3°C 100% 30.21 in
(1023 mb)
Calm - 1 3/4SM
01:55
Obscured
Fog And Mist
28°F / -2°C 28°F / -2°C 100% 30.21 in
(1023 mb)
Calm - 1 1/4SM
01:35
Clear
Fog And Mist
27°F / -3°C 27°F / -3°C 100% 30.21 in
(1023 mb)
Calm - 2 1/2SM
01:15
Obscured
Fog And Mist
27°F / -3°C 27°F / -3°C 100% 30.21 in
(1023 mb)
Calm - 3/4SM
00:55
Obscured
Fog And Mist
28°F / -2°C 28°F / -2°C 100% 30.18 in
(1022 mb)
Calm - 3/4SM
00:35
Clear
Fog And Mist
28°F / -2°C 28°F / -2°C 100% 30.21 in
(1023 mb)
Calm - 3SM
00:15
Clear
Fog And Mist
30°F / -1°C 28°F / -2°C 93% 30.21 in
(1023 mb)
Calm - 4SM
Time Weather Temperature Dewpoint Humidity Pressure Winds Precip Visibility


Weather for websites

WeatherForYou.com, LLC is not responsible for any damages or problems caused by this service. Current weather conditions are obtained from the closest station including government and personal stations which may have varying degrees of accuracy. Weather forecasts are derived from the NOAA NDFD. Like all things, this site belongs to Jesus Christ... He just trusts me to maintain it. If you have any questions or comments email webmaster@weatherforyou.com

Copyright © 2015, WeatherForYou.com LLC. All rights reserved.